Year,Month,Day,Hour,Minute,Value (Times are PST for temperature in C)
2015,06,27,00,00,20.20
2015,06,27,00,01,20.20
2015,06,27,00,02,20.20
2015,06,27,00,03,20.10
2015,06,27,00,04,20.10
2015,06,27,00,05,20.10
2015,06,27,00,06,20.10
2015,06,27,00,07,20.00
2015,06,27,00,08,20.00
2015,06,27,00,09,19.90
2015,06,27,00,10,19.90
2015,06,27,00,11,19.90
2015,06,27,00,12,19.80
2015,06,27,00,13,19.80
2015,06,27,00,14,19.80
2015,06,27,00,15,19.80
2015,06,27,00,16,19.70
2015,06,27,00,17,19.70
2015,06,27,00,18,19.70
2015,06,27,00,19,19.60
2015,06,27,00,20,19.60
2015,06,27,00,21,19.60
2015,06,27,00,22,19.50
2015,06,27,00,23,19.50
2015,06,27,00,24,19.50
2015,06,27,00,25,19.40
2015,06,27,00,26,19.40
2015,06,27,00,27,19.40
2015,06,27,00,28,19.40
2015,06,27,00,29,19.30
2015,06,27,00,30,19.30
2015,06,27,00,31,19.30
2015,06,27,00,32,19.30
2015,06,27,00,33,19.30
2015,06,27,00,34,19.30
2015,06,27,00,35,19.30
2015,06,27,00,36,19.20
2015,06,27,00,37,19.20
2015,06,27,00,38,19.20
2015,06,27,00,39,19.20
2015,06,27,00,40,19.20
2015,06,27,00,41,19.20
2015,06,27,00,42,19.20
2015,06,27,00,43,19.20
2015,06,27,00,44,19.10
2015,06,27,00,45,19.10
2015,06,27,00,46,19.10
2015,06,27,00,47,19.10
2015,06,27,00,48,19.10
2015,06,27,00,49,19.10
2015,06,27,00,50,19.10
2015,06,27,00,51,19.00
2015,06,27,00,52,19.00
2015,06,27,00,53,19.00
2015,06,27,00,54,19.00
2015,06,27,00,55,18.90
2015,06,27,00,56,18.90
2015,06,27,00,57,18.90
2015,06,27,00,58,18.90
2015,06,27,00,59,18.90
2015,06,27,01,00,18.90
2015,06,27,01,01,18.80
2015,06,27,01,02,18.80
2015,06,27,01,03,18.80
2015,06,27,01,04,18.80
2015,06,27,01,05,18.80
2015,06,27,01,06,18.80
2015,06,27,01,07,18.80
2015,06,27,01,08,18.80
2015,06,27,01,09,18.70
2015,06,27,01,10,18.70
2015,06,27,01,11,18.70
2015,06,27,01,12,18.70
2015,06,27,01,13,18.70
2015,06,27,01,14,18.70
2015,06,27,01,15,18.70
2015,06,27,01,16,18.70
2015,06,27,01,17,18.70
2015,06,27,01,18,18.70
2015,06,27,01,19,18.70
2015,06,27,01,20,18.70
2015,06,27,01,21,18.70
2015,06,27,01,22,18.70
2015,06,27,01,23,18.70
2015,06,27,01,24,18.70
2015,06,27,01,25,18.60
2015,06,27,01,26,18.60
2015,06,27,01,27,18.60
2015,06,27,01,28,18.60
2015,06,27,01,29,18.60
2015,06,27,01,30,18.50
2015,06,27,01,31,18.50
2015,06,27,01,32,18.50
2015,06,27,01,33,18.40
2015,06,27,01,34,18.40
2015,06,27,01,35,18.40
2015,06,27,01,36,18.40
2015,06,27,01,37,18.40
2015,06,27,01,38,18.30
2015,06,27,01,39,18.30
2015,06,27,01,40,18.30
2015,06,27,01,41,18.30
2015,06,27,01,42,18.30
2015,06,27,01,43,18.20
2015,06,27,01,44,18.20
2015,06,27,01,45,18.20
2015,06,27,01,46,18.20
2015,06,27,01,47,18.20
2015,06,27,01,48,18.20
2015,06,27,01,49,18.20
2015,06,27,01,50,18.10
2015,06,27,01,51,18.10
2015,06,27,01,52,18.10
2015,06,27,01,53,18.10
2015,06,27,01,54,18.10
2015,06,27,01,55,18.10
2015,06,27,01,56,18.10
2015,06,27,01,57,18.10
2015,06,27,01,58,18.10
2015,06,27,01,59,18.10
2015,06,27,02,00,18.10
2015,06,27,02,01,18.10
2015,06,27,02,02,18.10
2015,06,27,02,03,18.10
2015,06,27,02,04,18.10
2015,06,27,02,05,18.10
2015,06,27,02,06,18.10
2015,06,27,02,07,18.10
2015,06,27,02,08,18.10
2015,06,27,02,09,18.10
2015,06,27,02,10,18.10
2015,06,27,02,11,18.10
2015,06,27,02,12,18.10
2015,06,27,02,13,18.10
2015,06,27,02,14,18.10
2015,06,27,02,15,18.10
2015,06,27,02,16,18.10
2015,06,27,02,17,18.10
2015,06,27,02,18,18.10
2015,06,27,02,19,18.10
2015,06,27,02,20,18.10
2015,06,27,02,21,18.10
2015,06,27,02,22,18.10
2015,06,27,02,23,18.10
2015,06,27,02,24,18.10
2015,06,27,02,25,18.10
2015,06,27,02,26,18.10
2015,06,27,02,27,18.10
2015,06,27,02,28,18.10
2015,06,27,02,29,18.10
2015,06,27,02,30,18.00
2015,06,27,02,31,18.00
2015,06,27,02,32,18.00
2015,06,27,02,33,18.00
2015,06,27,02,34,17.90
2015,06,27,02,35,17.90
2015,06,27,02,36,17.90
2015,06,27,02,37,17.90
2015,06,27,02,38,17.90
2015,06,27,02,39,17.90
2015,06,27,02,40,17.90
2015,06,27,02,41,17.90
2015,06,27,02,42,17.90
2015,06,27,02,43,17.90
2015,06,27,02,44,17.80
2015,06,27,02,45,17.80
2015,06,27,02,46,17.80
2015,06,27,02,47,17.80
2015,06,27,02,48,17.80
2015,06,27,02,49,17.80
2015,06,27,02,50,17.80
2015,06,27,02,51,17.80
2015,06,27,02,52,17.80
2015,06,27,02,53,17.80
2015,06,27,02,54,17.80
2015,06,27,02,55,17.80
2015,06,27,02,56,17.70
2015,06,27,02,57,17.70
2015,06,27,02,58,17.70
2015,06,27,02,59,17.70
2015,06,27,03,00,17.70
2015,06,27,03,01,17.70
2015,06,27,03,02,17.70
2015,06,27,04,02,17.20
2015,06,27,04,03,17.20
2015,06,27,04,04,17.20
2015,06,27,04,05,17.20
2015,06,27,04,06,17.20
2015,06,27,04,07,17.20
2015,06,27,04,08,17.20
2015,06,27,04,09,17.20
2015,06,27,04,10,17.20
2015,06,27,04,11,17.20
2015,06,27,04,12,17.20
2015,06,27,04,13,17.20
2015,06,27,04,14,17.20
2015,06,27,04,15,17.20
2015,06,27,04,16,17.20
2015,06,27,04,17,17.20
2015,06,27,04,18,17.20
2015,06,27,04,19,17.20
2015,06,27,04,20,17.20
2015,06,27,04,21,17.20
2015,06,27,04,22,17.20
2015,06,27,04,23,17.20
2015,06,27,04,24,17.20
2015,06,27,04,25,17.30
2015,06,27,04,26,17.30
2015,06,27,04,27,17.30
2015,06,27,04,28,17.30
2015,06,27,04,29,17.30
2015,06,27,04,30,17.30
2015,06,27,04,31,17.30
2015,06,27,04,32,17.30
2015,06,27,04,33,17.30
2015,06,27,04,34,17.30
2015,06,27,04,35,17.30
2015,06,27,04,36,17.30
2015,06,27,04,37,17.30
2015,06,27,04,38,17.30
2015,06,27,04,39,17.30
2015,06,27,04,40,17.30
2015,06,27,04,41,17.20
2015,06,27,04,42,17.20
2015,06,27,04,43,17.20
2015,06,27,04,44,17.20
2015,06,27,04,45,17.20
2015,06,27,04,46,17.20
2015,06,27,04,47,17.20
2015,06,27,04,48,17.20
2015,06,27,04,49,17.20
2015,06,27,04,50,17.20
2015,06,27,04,51,17.20
2015,06,27,04,52,17.20
2015,06,27,04,53,17.20
2015,06,27,04,54,17.10
2015,06,27,04,55,17.10
2015,06,27,04,56,17.10
2015,06,27,04,57,17.10
2015,06,27,04,58,17.10
2015,06,27,04,59,17.10
2015,06,27,05,00,17.10
2015,06,27,05,01,17.10
2015,06,27,05,02,17.10
2015,06,27,05,03,17.10
2015,06,27,05,04,17.10
2015,06,27,05,05,17.10
2015,06,27,05,06,17.10
2015,06,27,05,07,17.10
2015,06,27,05,08,17.10
2015,06,27,05,09,17.10
2015,06,27,05,10,17.10
2015,06,27,05,11,17.10
2015,06,27,05,12,17.10
2015,06,27,05,13,17.10
2015,06,27,05,14,17.10
2015,06,27,05,15,17.10
2015,06,27,05,16,17.00
2015,06,27,05,17,17.00
2015,06,27,05,18,17.00
2015,06,27,05,19,17.00
2015,06,27,05,20,17.00
2015,06,27,05,21,17.00
2015,06,27,05,22,17.00
2015,06,27,05,23,16.90
2015,06,27,05,24,16.90
2015,06,27,05,25,16.90
2015,06,27,05,26,16.90
2015,06,27,05,27,16.90
2015,06,27,05,28,16.90
2015,06,27,05,29,16.90
2015,06,27,05,30,16.90
2015,06,27,05,31,16.90
2015,06,27,05,32,16.90
2015,06,27,05,33,16.90
2015,06,27,05,34,16.90
2015,06,27,05,35,16.90
2015,06,27,05,36,16.80
2015,06,27,05,37,16.80
2015,06,27,05,38,16.80
2015,06,27,05,39,16.80
2015,06,27,05,40,16.80
2015,06,27,05,41,16.80
2015,06,27,05,42,16.80
2015,06,27,05,43,16.80
2015,06,27,05,44,16.80
2015,06,27,05,45,16.80
2015,06,27,05,46,16.80
2015,06,27,05,47,16.80
2015,06,27,05,48,16.80
2015,06,27,05,49,16.80
2015,06,27,05,50,16.80
2015,06,27,05,51,16.80
2015,06,27,05,52,16.80
2015,06,27,05,53,16.80
2015,06,27,05,54,16.80
2015,06,27,05,55,16.70
2015,06,27,05,56,16.70
2015,06,27,05,57,16.70
2015,06,27,05,58,16.70
2015,06,27,05,59,16.70
2015,06,27,06,00,16.70
2015,06,27,06,01,16.70
2015,06,27,06,02,16.70
2015,06,27,06,03,16.80
2015,06,27,06,04,16.80
2015,06,27,06,05,16.80
2015,06,27,06,06,16.80
2015,06,27,06,07,16.80
2015,06,27,06,08,16.80
2015,06,27,06,09,16.90
2015,06,27,06,10,16.90
2015,06,27,06,11,16.90
2015,06,27,06,12,16.90
2015,06,27,06,13,17.00
2015,06,27,06,14,17.00
2015,06,27,06,15,17.10
2015,06,27,06,16,17.10
2015,06,27,06,17,17.10
2015,06,27,06,18,17.10
2015,06,27,06,19,17.10
2015,06,27,06,20,17.10
2015,06,27,06,21,17.20
2015,06,27,06,22,17.20
2015,06,27,06,23,17.20
2015,06,27,06,24,17.20
2015,06,27,06,25,17.20
2015,06,27,06,26,17.20
2015,06,27,06,27,17.20
2015,06,27,06,28,17.30
2015,06,27,06,29,17.30
2015,06,27,06,30,17.30
2015,06,27,06,31,17.40
2015,06,27,06,32,17.40
2015,06,27,06,33,17.40
2015,06,27,06,34,17.40
2015,06,27,06,35,17.50
2015,06,27,06,36,17.50
2015,06,27,06,37,17.50
2015,06,27,06,38,17.60
2015,06,27,06,39,17.60
2015,06,27,06,40,17.70
2015,06,27,06,41,17.70
2015,06,27,06,42,17.70
2015,06,27,06,43,17.70
2015,06,27,06,44,17.70
2015,06,27,06,45,17.70
2015,06,27,06,46,17.70
2015,06,27,06,47,17.70
2015,06,27,06,48,17.70
2015,06,27,06,49,17.80
2015,06,27,06,50,17.80
2015,06,27,06,51,17.80
2015,06,27,06,52,17.80
2015,06,27,06,53,17.80
2015,06,27,06,54,17.80
2015,06,27,06,55,17.80
2015,06,27,06,56,17.90
2015,06,27,06,57,17.90
2015,06,27,06,58,17.90
2015,06,27,06,59,17.90
2015,06,27,07,00,17.90
2015,06,27,07,01,17.90
2015,06,27,07,02,17.90
2015,06,27,07,03,17.90
2015,06,27,07,04,17.90
2015,06,27,07,05,17.90
2015,06,27,07,06,17.90
2015,06,27,07,07,17.90
2015,06,27,07,08,17.90
2015,06,27,07,09,17.90
2015,06,27,07,10,17.90
2015,06,27,07,11,17.90
2015,06,27,07,12,17.90
2015,06,27,07,13,17.90
2015,06,27,07,14,17.90
2015,06,27,07,15,17.90
2015,06,27,07,16,17.90
2015,06,27,07,17,17.90
2015,06,27,07,18,17.90
2015,06,27,07,19,17.90
2015,06,27,07,20,17.90
2015,06,27,07,21,18.00
2015,06,27,07,22,18.00
2015,06,27,07,23,18.00
2015,06,27,07,24,18.00
2015,06,27,07,25,18.00
2015,06,27,07,26,18.10
2015,06,27,07,27,18.10
2015,06,27,07,28,18.10
2015,06,27,07,29,18.20
2015,06,27,07,30,18.20
2015,06,27,07,31,18.20
2015,06,27,07,32,18.30
2015,06,27,07,33,18.30
2015,06,27,07,34,18.40
2015,06,27,07,35,18.40
2015,06,27,07,36,18.50
2015,06,27,07,37,18.60
2015,06,27,07,38,18.60
2015,06,27,07,39,18.70
2015,06,27,07,40,18.70
2015,06,27,07,41,18.80
2015,06,27,07,42,18.80
2015,06,27,07,43,18.80
2015,06,27,07,44,18.80
2015,06,27,07,45,18.80
2015,06,27,07,46,18.80
2015,06,27,07,47,18.80
2015,06,27,07,48,18.80
2015,06,27,07,49,18.90
2015,06,27,07,50,18.90
2015,06,27,07,51,18.90
2015,06,27,07,52,19.00
2015,06,27,07,53,19.10
2015,06,27,07,54,19.20
2015,06,27,07,55,19.20
2015,06,27,07,56,19.30
2015,06,27,07,57,19.30
2015,06,27,07,58,19.30
2015,06,27,07,59,19.30
2015,06,27,08,00,19.30
2015,06,27,08,01,19.30
2015,06,27,08,02,19.30
2015,06,27,08,03,19.30
2015,06,27,08,04,19.30
2015,06,27,08,05,19.30
2015,06,27,08,06,19.40
2015,06,27,08,07,19.40
2015,06,27,08,08,19.40
2015,06,27,08,09,19.40
2015,06,27,08,10,19.30
2015,06,27,08,11,19.30
2015,06,27,08,12,19.20
2015,06,27,08,13,19.20
2015,06,27,08,14,19.20
2015,06,27,08,15,19.10
2015,06,27,08,16,19.10
2015,06,27,08,17,19.10
2015,06,27,08,18,19.10
2015,06,27,08,19,19.10
2015,06,27,08,20,19.10
2015,06,27,08,21,19.20
2015,06,27,08,22,19.20
2015,06,27,08,23,19.30
2015,06,27,08,24,19.30
2015,06,27,08,25,19.30
2015,06,27,08,26,19.30
2015,06,27,08,27,19.40
2015,06,27,08,28,19.40
2015,06,27,08,29,19.40
2015,06,27,08,30,19.50
2015,06,27,08,31,19.60
2015,06,27,08,32,19.60
2015,06,27,08,33,19.60
2015,06,27,08,34,19.60
2015,06,27,08,35,19.60
2015,06,27,08,36,19.60
2015,06,27,08,37,19.60
2015,06,27,08,38,19.60
2015,06,27,08,39,19.60
2015,06,27,08,40,19.60
2015,06,27,08,41,19.60
2015,06,27,08,42,19.60
2015,06,27,08,43,19.60
2015,06,27,08,44,19.60
2015,06,27,08,45,19.60
2015,06,27,08,46,19.60
2015,06,27,08,47,19.60
2015,06,27,08,48,19.60
2015,06,27,08,49,19.60
2015,06,27,08,50,19.70
2015,06,27,08,51,19.80
2015,06,27,08,52,19.80
2015,06,27,08,53,19.90
2015,06,27,08,54,19.90
2015,06,27,08,55,19.80
2015,06,27,08,56,19.80
2015,06,27,08,57,19.90
2015,06,27,08,58,19.90
2015,06,27,08,59,20.00
2015,06,27,09,00,20.00
2015,06,27,09,01,20.10
2015,06,27,09,02,20.20
2015,06,27,09,03,20.30
2015,06,27,09,04,20.30
2015,06,27,09,05,20.50
2015,06,27,09,06,20.50
2015,06,27,09,07,20.60
2015,06,27,09,08,20.70
2015,06,27,09,09,20.80
2015,06,27,09,10,20.90
2015,06,27,09,11,20.90
2015,06,27,09,12,21.00
2015,06,27,09,13,21.10
2015,06,27,09,14,21.20
2015,06,27,09,15,21.20
2015,06,27,09,16,21.30
2015,06,27,09,17,21.30
2015,06,27,09,18,21.40
2015,06,27,09,19,21.40
2015,06,27,09,20,21.40
2015,06,27,09,21,21.50
2015,06,27,09,22,21.50
2015,06,27,09,23,21.60
2015,06,27,09,24,21.60
2015,06,27,09,25,21.70
2015,06,27,09,26,21.70
2015,06,27,09,27,21.80
2015,06,27,09,28,21.80
2015,06,27,09,29,21.90
2015,06,27,09,30,22.00
2015,06,27,09,31,22.00
2015,06,27,09,32,22.10
2015,06,27,09,33,22.00
2015,06,27,09,34,22.00
2015,06,27,09,35,21.90
2015,06,27,09,36,21.90
2015,06,27,09,37,21.80
2015,06,27,09,38,21.80
2015,06,27,09,39,21.80
2015,06,27,09,40,21.80
2015,06,27,09,41,21.80
2015,06,27,09,42,21.80
2015,06,27,09,43,21.90
2015,06,27,09,44,21.90
2015,06,27,09,45,22.00
2015,06,27,09,46,22.00
2015,06,27,09,47,22.10
2015,06,27,09,48,22.10
2015,06,27,09,49,22.10
2015,06,27,09,50,22.10
2015,06,27,09,51,22.00
2015,06,27,09,52,22.00
2015,06,27,09,53,22.00
2015,06,27,09,54,22.00
2015,06,27,09,55,22.00
2015,06,27,09,56,22.00
2015,06,27,09,57,21.90
2015,06,27,09,58,21.90
2015,06,27,09,59,21.90
2015,06,27,10,00,22.00
2015,06,27,10,01,22.10
2015,06,27,10,02,22.20
2015,06,27,10,03,22.20
2015,06,27,10,04,22.30
2015,06,27,10,05,22.30
2015,06,27,10,06,22.30
2015,06,27,10,07,22.20
2015,06,27,10,08,22.10
2015,06,27,10,09,22.10
2015,06,27,10,10,22.20
2015,06,27,10,11,22.20
2015,06,27,10,12,22.20
2015,06,27,10,13,22.30
2015,06,27,10,14,22.30
2015,06,27,10,15,22.30
2015,06,27,10,16,22.30
2015,06,27,10,17,22.30
2015,06,27,10,18,22.30
2015,06,27,10,19,22.30
2015,06,27,10,20,22.30
2015,06,27,10,21,22.30
2015,06,27,10,22,22.40
2015,06,27,10,23,22.50
2015,06,27,10,24,22.50
2015,06,27,10,25,22.60
2015,06,27,10,26,22.60
2015,06,27,10,27,22.60
2015,06,27,10,28,22.60
2015,06,27,10,29,22.60
2015,06,27,10,30,22.60
2015,06,27,10,31,22.60
2015,06,27,10,32,22.60
2015,06,27,10,33,22.60
2015,06,27,10,34,22.60
2015,06,27,10,35,22.60
2015,06,27,10,36,22.60
2015,06,27,10,37,22.70
2015,06,27,10,38,22.70
2015,06,27,10,39,22.70
2015,06,27,10,40,22.80
2015,06,27,10,41,22.80
2015,06,27,10,42,22.90
2015,06,27,10,43,23.00
2015,06,27,10,44,23.20
2015,06,27,10,45,23.30
2015,06,27,10,46,23.40
2015,06,27,10,47,23.50
2015,06,27,10,48,23.70
2015,06,27,10,49,23.80
2015,06,27,10,50,23.80
2015,06,27,10,51,23.80
2015,06,27,10,52,23.80
2015,06,27,10,53,23.80
2015,06,27,10,54,23.90
2015,06,27,10,55,24.00
2015,06,27,10,56,24.10
2015,06,27,10,57,24.10
2015,06,27,10,58,24.20
2015,06,27,10,59,24.30
2015,06,27,11,00,24.40
2015,06,27,11,01,24.50
2015,06,27,11,02,24.50
2015,06,27,11,03,24.60
2015,06,27,11,04,24.70
2015,06,27,11,05,24.80
2015,06,27,11,06,24.90
2015,06,27,11,07,24.90
2015,06,27,11,08,25.00
2015,06,27,11,09,25.00
2015,06,27,11,10,25.00
2015,06,27,11,11,24.90
2015,06,27,11,12,24.90
2015,06,27,11,13,24.90
2015,06,27,11,14,24.90
2015,06,27,11,15,24.90
2015,06,27,11,16,24.90
2015,06,27,11,17,24.90
2015,06,27,11,18,25.00
2015,06,27,11,19,25.10
2015,06,27,11,20,25.20
2015,06,27,11,21,25.30
2015,06,27,11,22,25.30
2015,06,27,11,23,25.30
2015,06,27,11,24,25.30
2015,06,27,11,25,25.30
2015,06,27,11,26,25.30
2015,06,27,11,27,25.30
2015,06,27,11,28,25.20
2015,06,27,11,29,25.20
2015,06,27,11,30,25.10
2015,06,27,11,31,25.10
2015,06,27,11,32,25.10
2015,06,27,11,33,25.00
2015,06,27,11,34,24.90
2015,06,27,11,35,24.80
2015,06,27,11,36,24.80
2015,06,27,11,37,24.90
2015,06,27,11,38,24.90
2015,06,27,11,39,24.90
2015,06,27,11,40,24.90
2015,06,27,11,41,24.80
2015,06,27,11,42,24.80
2015,06,27,11,43,24.90
2015,06,27,11,44,25.00
2015,06,27,11,45,25.10
2015,06,27,11,46,25.20
2015,06,27,11,47,25.20
2015,06,27,11,48,25.20
2015,06,27,11,49,25.20
2015,06,27,11,50,25.20
2015,06,27,11,51,25.10
2015,06,27,11,52,25.10
2015,06,27,11,53,25.00
2015,06,27,11,54,24.90
2015,06,27,11,55,24.90
2015,06,27,11,56,25.00
2015,06,27,11,57,25.00
2015,06,27,11,58,25.10
2015,06,27,11,59,25.20
2015,06,27,12,00,25.20
2015,06,27,12,01,25.20
2015,06,27,12,02,25.30
2015,06,27,12,03,25.30
2015,06,27,12,04,25.30
2015,06,27,12,05,25.30
2015,06,27,12,06,25.30
2015,06,27,12,07,25.40
2015,06,27,12,08,25.40
2015,06,27,12,09,25.40
2015,06,27,12,10,25.40
2015,06,27,12,11,25.40
2015,06,27,12,12,25.50
2015,06,27,12,13,25.50
2015,06,27,12,14,25.40
2015,06,27,12,15,25.30
2015,06,27,12,16,25.30
2015,06,27,12,17,25.20
2015,06,27,12,18,25.30
2015,06,27,12,19,25.30
2015,06,27,12,20,25.30
2015,06,27,12,21,25.30
2015,06,27,12,22,25.30
2015,06,27,12,23,25.40
2015,06,27,12,24,25.40
2015,06,27,12,25,25.40
2015,06,27,12,26,25.40
2015,06,27,12,27,25.40
2015,06,27,12,28,25.30
2015,06,27,12,29,25.30
2015,06,27,12,30,25.40
2015,06,27,12,31,25.50
2015,06,27,12,32,25.60
2015,06,27,12,33,25.60
2015,06,27,12,34,25.70
2015,06,27,12,35,25.80
2015,06,27,12,36,25.80
2015,06,27,12,37,25.90
2015,06,27,12,38,26.00
2015,06,27,12,39,26.00
2015,06,27,12,40,26.20
2015,06,27,12,41,26.30
2015,06,27,12,42,26.30
2015,06,27,12,43,26.30
2015,06,27,12,44,26.30
2015,06,27,12,45,26.30
2015,06,27,12,46,26.40
2015,06,27,12,47,26.50
2015,06,27,12,48,26.60
2015,06,27,12,49,26.60
2015,06,27,12,50,26.70
2015,06,27,12,51,26.70
2015,06,27,12,52,26.80
2015,06,27,12,53,26.90
2015,06,27,12,54,27.10
2015,06,27,12,55,27.20
2015,06,27,12,56,27.30
2015,06,27,12,57,27.30
2015,06,27,12,58,27.30
2015,06,27,12,59,27.30
2015,06,27,13,00,27.40
2015,06,27,13,01,27.40
2015,06,27,13,02,27.30
2015,06,27,13,03,27.20
2015,06,27,13,04,27.30
2015,06,27,13,05,27.30
2015,06,27,13,06,27.40
2015,06,27,13,07,27.40
2015,06,27,13,08,27.30
2015,06,27,13,09,27.30
2015,06,27,13,10,27.30
2015,06,27,13,11,27.40
2015,06,27,13,12,27.40
2015,06,27,13,13,27.40
2015,06,27,13,14,27.40
2015,06,27,13,15,27.40
2015,06,27,13,16,27.40
2015,06,27,13,17,27.40
2015,06,27,13,18,27.50
2015,06,27,13,19,27.50
2015,06,27,13,20,27.50
2015,06,27,13,21,27.50
2015,06,27,13,22,27.60
2015,06,27,13,23,27.70
2015,06,27,13,24,27.90
2015,06,27,13,25,27.90
2015,06,27,13,26,27.90
2015,06,27,13,27,27.90
2015,06,27,13,28,27.90
2015,06,27,13,29,27.90
2015,06,27,13,30,27.90
2015,06,27,13,31,27.90
2015,06,27,13,32,27.80
2015,06,27,13,33,27.80
2015,06,27,13,34,27.80
2015,06,27,13,35,27.80
2015,06,27,13,36,27.80
2015,06,27,13,37,27.90
2015,06,27,13,38,28.00
2015,06,27,13,39,28.10
2015,06,27,13,40,28.10
2015,06,27,13,41,28.10
2015,06,27,13,42,28.10
2015,06,27,13,43,28.10
2015,06,27,13,44,28.00
2015,06,27,13,45,28.00
2015,06,27,13,46,28.00
2015,06,27,13,47,28.00
2015,06,27,13,48,28.10
2015,06,27,13,49,28.10
2015,06,27,13,50,28.10
2015,06,27,13,51,28.20
2015,06,27,13,52,28.20
2015,06,27,13,53,28.20
2015,06,27,13,54,28.30
2015,06,27,13,55,28.30
2015,06,27,13,56,28.30
2015,06,27,13,57,28.30
2015,06,27,13,58,28.30
2015,06,27,13,59,28.50
2015,06,27,14,00,28.60
2015,06,27,14,01,28.70
2015,06,27,14,02,28.80
2015,06,27,14,03,28.80
2015,06,27,14,04,28.90
2015,06,27,14,05,29.00
2015,06,27,14,06,29.10
2015,06,27,14,07,29.10
2015,06,27,14,08,29.20
2015,06,27,14,09,29.20
2015,06,27,14,10,29.30
2015,06,27,14,11,29.30
2015,06,27,14,12,29.30
2015,06,27,14,13,29.30
2015,06,27,14,14,29.30
2015,06,27,14,15,29.30
2015,06,27,14,16,29.30
2015,06,27,14,17,29.30
2015,06,27,14,18,29.30
2015,06,27,14,19,29.30
2015,06,27,14,20,29.30
2015,06,27,14,21,29.30
2015,06,27,14,22,29.30
2015,06,27,14,23,29.30
2015,06,27,14,24,29.20
2015,06,27,14,25,29.20
2015,06,27,14,26,29.20
2015,06,27,14,27,29.20
2015,06,27,14,28,29.30
2015,06,27,14,29,29.30
2015,06,27,14,30,29.30
2015,06,27,14,31,29.30
2015,06,27,14,32,29.30
2015,06,27,14,33,29.30
2015,06,27,14,34,29.30
2015,06,27,14,35,29.20
2015,06,27,14,36,29.30
2015,06,27,14,37,29.30
2015,06,27,14,38,29.40
2015,06,27,14,39,29.50
2015,06,27,14,40,29.50
2015,06,27,14,41,29.60
2015,06,27,14,42,29.60
2015,06,27,14,43,29.60
2015,06,27,14,44,29.50
2015,06,27,14,45,29.60
2015,06,27,14,46,29.70
2015,06,27,14,47,29.80
2015,06,27,14,48,29.80
2015,06,27,14,49,29.90
2015,06,27,14,50,29.90
2015,06,27,14,51,30.00
2015,06,27,14,52,30.10
2015,06,27,14,53,30.10
2015,06,27,14,54,30.10
2015,06,27,14,55,30.00
2015,06,27,14,56,30.10
2015,06,27,14,57,30.10
2015,06,27,14,58,30.20
2015,06,27,14,59,30.20
2015,06,27,15,00,30.30
2015,06,27,15,01,30.30
2015,06,27,15,02,30.30
2015,06,27,15,03,30.30
2015,06,27,15,04,30.40
2015,06,27,15,05,30.40
2015,06,27,15,06,30.50
2015,06,27,15,07,30.60
2015,06,27,15,08,30.70
2015,06,27,15,09,30.80
2015,06,27,15,10,30.70
2015,06,27,15,11,30.70
2015,06,27,15,12,30.70
2015,06,27,15,13,30.70
2015,06,27,15,14,30.60
2015,06,27,15,15,30.60
2015,06,27,15,16,30.60
2015,06,27,15,17,30.60
2015,06,27,15,18,30.60
2015,06,27,15,19,30.60
2015,06,27,15,20,30.60
2015,06,27,15,21,30.70
2015,06,27,15,22,30.70
2015,06,27,15,23,30.70
2015,06,27,15,24,30.80
2015,06,27,15,25,30.90
2015,06,27,15,26,30.90
2015,06,27,15,27,30.80
2015,06,27,15,28,30.80
2015,06,27,15,29,30.80
2015,06,27,15,30,30.70
2015,06,27,15,31,30.60
2015,06,27,15,32,30.60
2015,06,27,15,33,30.60
2015,06,27,15,34,30.70
2015,06,27,15,35,30.80
2015,06,27,15,36,30.80
2015,06,27,15,37,30.90
2015,06,27,15,38,30.90
2015,06,27,15,39,31.00
2015,06,27,15,40,31.10
2015,06,27,15,41,31.20
2015,06,27,15,42,31.20
2015,06,27,15,43,31.30
2015,06,27,15,44,31.30
2015,06,27,15,45,31.20
2015,06,27,15,46,31.20
2015,06,27,15,47,31.20
2015,06,27,15,48,31.30
2015,06,27,15,49,31.30
2015,06,27,15,50,31.30
2015,06,27,15,51,31.30
2015,06,27,15,52,31.40
2015,06,27,15,53,31.50
2015,06,27,15,54,31.60
2015,06,27,15,55,31.70
2015,06,27,15,56,31.80
2015,06,27,15,57,31.80
2015,06,27,15,58,31.80
2015,06,27,15,59,31.80
2015,06,27,16,00,31.80
2015,06,27,16,01,31.90
2015,06,27,16,02,31.90
2015,06,27,16,03,31.80
2015,06,27,16,04,31.70
2015,06,27,16,05,31.70
2015,06,27,16,06,31.70
2015,06,27,16,07,31.70
2015,06,27,16,08,31.70
2015,06,27,16,09,31.70
2015,06,27,16,10,31.60
2015,06,27,16,11,31.60
2015,06,27,16,12,31.60
2015,06,27,16,13,31.70
2015,06,27,16,14,31.70
2015,06,27,16,15,31.70
2015,06,27,16,16,31.80
2015,06,27,16,17,31.80
2015,06,27,16,18,31.80
2015,06,27,16,19,31.80
2015,06,27,16,20,31.90
2015,06,27,16,21,31.90
2015,06,27,16,22,32.00
2015,06,27,16,23,32.00
2015,06,27,16,24,32.10
2015,06,27,16,25,32.10
2015,06,27,16,26,32.10
2015,06,27,16,27,32.00
2015,06,27,16,28,32.00
2015,06,27,16,29,32.00
2015,06,27,16,30,32.00
2015,06,27,16,31,32.10
2015,06,27,16,32,32.20
2015,06,27,16,33,32.20
2015,06,27,16,34,32.20
2015,06,27,16,35,32.20
2015,06,27,16,36,32.20
2015,06,27,16,37,32.20
2015,06,27,16,38,32.20
2015,06,27,16,39,32.20
2015,06,27,16,40,32.20
2015,06,27,16,41,32.30
2015,06,27,16,42,32.30
2015,06,27,16,43,32.40
2015,06,27,16,44,32.40
2015,06,27,16,45,32.40
2015,06,27,16,46,32.50
2015,06,27,16,47,32.50
2015,06,27,16,48,32.60
2015,06,27,16,49,32.60
2015,06,27,16,50,32.60
2015,06,27,16,51,32.60
2015,06,27,16,52,32.60
2015,06,27,16,53,32.60
2015,06,27,16,54,32.60
2015,06,27,16,55,32.60
2015,06,27,16,56,32.60
2015,06,27,16,57,32.60
2015,06,27,16,58,32.60
2015,06,27,16,59,32.70
2015,06,27,17,00,32.70
2015,06,27,17,01,32.80
2015,06,27,17,02,32.70
2015,06,27,17,03,32.80
2015,06,27,17,04,32.70
2015,06,27,17,05,32.70
2015,06,27,17,06,32.70
2015,06,27,17,07,32.70
2015,06,27,17,08,32.60
2015,06,27,17,09,32.50
2015,06,27,17,10,32.50
2015,06,27,17,11,32.40
2015,06,27,17,12,32.40
2015,06,27,17,13,32.50
2015,06,27,17,14,32.60
2015,06,27,17,15,32.70
2015,06,27,17,16,32.70
2015,06,27,17,17,32.80
2015,06,27,17,18,32.70
2015,06,27,17,19,32.70
2015,06,27,17,20,32.60
2015,06,27,17,21,32.50
2015,06,27,17,22,32.50
2015,06,27,17,23,32.50
2015,06,27,17,24,32.50
2015,06,27,17,25,32.40
2015,06,27,17,26,32.40
2015,06,27,17,27,32.40
2015,06,27,17,28,32.30
2015,06,27,17,29,32.30
2015,06,27,17,30,32.30
2015,06,27,17,31,32.30
2015,06,27,17,32,32.30
2015,06,27,17,33,32.30
2015,06,27,17,34,32.20
2015,06,27,17,35,32.20
2015,06,27,17,36,32.30
2015,06,27,17,37,32.30
2015,06,27,17,38,32.30
2015,06,27,17,39,32.40
2015,06,27,17,40,32.40
2015,06,27,17,41,32.40
2015,06,27,17,42,32.50
2015,06,27,17,43,32.50
2015,06,27,17,44,32.60
2015,06,27,17,45,32.60
2015,06,27,17,46,32.60
2015,06,27,17,47,32.70
2015,06,27,17,48,32.70
2015,06,27,17,49,32.60
2015,06,27,17,50,32.60
2015,06,27,17,51,32.50
2015,06,27,17,52,32.50
2015,06,27,17,53,32.40
2015,06,27,17,54,32.50
2015,06,27,17,55,32.40
2015,06,27,17,56,32.40
2015,06,27,17,57,32.40
2015,06,27,17,58,32.50
2015,06,27,17,59,32.60
2015,06,27,18,00,32.50
2015,06,27,18,01,32.40
2015,06,27,18,02,32.40
2015,06,27,18,03,32.30
2015,06,27,18,04,32.30
2015,06,27,18,05,32.30
2015,06,27,18,06,32.30
2015,06,27,18,07,32.30
2015,06,27,18,08,32.30
2015,06,27,18,09,32.20
2015,06,27,18,10,32.30
2015,06,27,18,11,32.30
2015,06,27,18,12,32.40
2015,06,27,18,13,32.40
2015,06,27,18,14,32.40
2015,06,27,18,15,32.40
2015,06,27,18,16,32.40
2015,06,27,18,17,32.40
2015,06,27,18,18,32.40